DateTime,F1_A11,F1_S11,BsB_S11,BsG_S11,BsR_S11,BbsB_S11,BbsG_S11,BbsR_S11,BaB_A11,BaG_A11,BaR_A11,T_S11,U_S11,P_S11,T1_A11
2016-09-29T00:00:00Z,0000380,21000600,,,,,,,,,,27.0,00.3,0659.3,34.7
2016-09-29T00:01:00Z,0000380,21000600,,,,,,,,,,27.0,00.3,0659.3,34.7
2016-09-29T00:02:00Z,0000380,21000600,,,,,,,,,,27.0,00.3,0659.3,34.7
2016-09-29T00:03:00Z,0000380,61000600,,,,,,,,,,27.1,00.3,0659.2,34.7
2016-09-29T00:04:00Z,0000380,41000600,-000.07,0000.49,0001.02,-000.24,0000.21,0000.14,-000.00,-000.01,-000.00,27.1,00.3,0660.2,34.7
2016-09-29T00:05:00Z,0000380,01000600,0000.87,0000.55,0000.16,-000.05,-000.40,-000.27,0000.11,-000.01,0000.17,27.1,00.4,0660.3,34.7
2016-09-29T00:06:00Z,0000380,01000600,0001.10,0000.12,0000.31,0000.38,0000.08,0000.27,-000.12,0000.13,-000.20,27.0,00.4,0660.3,34.7
2016-09-29T00:07:00Z,0000380,01000600,0000.22,0000.36,0000.80,0000.22,-000.18,0000.08,0000.21,0000.09,0000.15,27.0,00.4,0660.3,34.7
2016-09-29T00:08:00Z,0000380,01000600,0000.79,0000.71,0000.17,-000.18,0000.02,0000.00,0000.22,-000.09,0000.09,27.1,00.4,0660.3,34.7
2016-09-29T00:09:00Z,0000380,01000600,0000.63,0000.66,0000.55,0000.34,-000.13,0000.31,-000.23,0000.16,0000.10,27.0,00.4,0660.3,34.7
2016-09-29T00:10:00Z,0000380,01000600,-000.08,0000.57,0000.37,-000.05,-000.14,-000.29,0000.18,0000.03,-000.24,27.0,00.4,0660.3,34.7
2016-09-29T00:11:00Z,0000380,01000600,0000.76,0000.37,-000.11,0000.02,-000.02,0000.11,-000.02,-000.06,-000.14,27.0,00.4,0660.2,34.7
2016-09-29T00:12:00Z,0000380,01000600,0000.67,0000.43,-000.32,-000.38,0000.14,0000.18,-000.12,0000.06,0000.18,27.0,00.4,0660.2,34.7
2016-09-29T00:13:00Z,0000380,01000600,0000.89,0000.09,0000.27,-000.43,0000.11,-000.05,0000.00,0000.06,0000.11,27.0,00.4,0660.2,34.7
2016-09-29T00:14:00Z,0000380,01000600,0000.81,0000.50,0000.63,0000.19,0000.48,-000.18,0000.16,0000.06,-000.16,27.0,00.4,0660.2,34.7
2016-09-29T00:15:00Z,0000380,01000600,0001.55,0000.21,0000.33,-000.56,0000.42,-000.10,-000.01,-000.04,0000.29,27.0,00.3,0660.2,34.7
2016-09-29T00:16:00Z,0000380,01000600,0000.40,0000.23,0000.34,0000.13,0000.26,-000.29,-000.03,0000.02,-000.23,27.0,00.4,0660.2,34.7
2016-09-29T00:17:00Z,0000380,01000600,0000.13,0000.26,0000.58,-000.22,-000.27,0000.16,0000.09,0000.08,0000.15,27.0,00.4,0660.2,34.7
2016-09-29T00:18:00Z,0000380,01000600,0001.13,-000.07,0000.82,0000.24,0000.26,0000.11,0000.02,0000.09,0000.04,27.0,00.4,0660.2,34.7
2016-09-29T00:19:00Z,0000380,01000600,0000.50,-000.25,-000.11,-000.27,0000.10,-000.11,0000.18,-000.23,-000.19,27.0,00.4,0660.2,34.7
2016-09-29T00:20:00Z,0000380,01000600,0000.04,0000.19,0000.06,-000.19,0000.19,-000.37,-000.05,0000.09,0000.14,27.0,00.5,0660.2,34.7
2016-09-29T00:21:00Z,0000380,01000600,0000.31,-000.19,0000.33,0000.21,-000.03,0000.06,0000.19,0000.19,0000.25,27.0,00.4,0660.2,34.7
2016-09-29T00:22:00Z,0000380,01000600,0000.44,0000.32,0000.04,0000.19,0000.35,0000.24,0000.12,0000.22,-000.12,27.0,00.4,0660.2,34.7
2016-09-29T00:23:00Z,0000380,01000600,0000.37,0000.28,-000.02,-000.42,-000.18,-000.08,0000.01,-000.10,0000.12,27.0,00.4,0660.2,34.7
2016-09-29T00:24:00Z,0000380,01000600,0000.55,0000.31,0000.37,0000.18,-000.05,-000.11,0000.09,-000.01,-000.03,27.0,00.4,0660.2,34.7
2016-09-29T00:25:00Z,0000380,01000600,0000.63,-000.25,0000.15,0000.37,0000.27,-000.43,-000.01,0000.22,-000.13,26.9,00.4,0660.2,34.7
2016-09-29T00:26:00Z,0000380,01000600,0000.54,0000.21,0000.32,-000.03,0000.19,-000.26,-000.13,-000.07,0000.19,26.9,00.4,0660.2,34.7
2016-09-29T00:27:00Z,0000380,01000600,0000.34,0000.22,0000.10,-000.67,-000.16,-000.03,0000.18,0000.16,0000.31,26.9,00.4,0660.2,34.7
2016-09-29T00:28:00Z,0000380,01000600,0000.69,0000.08,-000.04,0000.32,0000.38,0000.06,0000.01,0000.01,-000.31,26.9,00.5,0660.2,34.7
2016-09-29T00:29:00Z,0000380,01000600,0000.68,0000.38,0000.43,0000.53,0000.32,0000.08,0000.12,-000.06,0000.02,26.9,00.5,0660.1,34.7
2016-09-29T00:30:00Z,0000380,01000600,0001.01,0000.48,-000.17,0000.16,-000.06,0000.10,-000.16,0000.16,0000.37,26.9,00.5,0660.1,34.7
2016-09-29T00:31:00Z,0000380,01000600,0000.23,-000.31,-000.22,-000.35,-000.38,-000.08,0000.14,-000.09,-000.13,26.9,00.5,0660.1,34.7
2016-09-29T00:32:00Z,0000380,01000600,0000.87,0000.15,0000.01,0000.24,-000.14,0000.10,-000.12,0000.17,0000.13,26.9,00.5,0660.1,34.7
2016-09-29T00:33:00Z,0000380,01000600,0000.23,0000.65,0000.34,-000.34,0000.06,-000.26,0000.36,0000.11,0000.04,26.9,00.5,0660.1,34.7
2016-09-29T00:34:00Z,0000380,01000600,0000.84,0000.51,-000.36,0000.08,0000.27,-000.30,-000.11,-000.01,-000.02,26.9,00.5,0660.1,34.7
2016-09-29T00:35:00Z,0000380,01000600,0001.77,0000.35,0000.06,-000.71,0000.40,0000.14,0000.18,0000.14,-000.03,26.9,00.5,0660.1,34.7
2016-09-29T00:36:00Z,0000380,01000600,0000.98,0000.25,0000.09,0000.32,0000.48,-000.13,-000.22,0000.02,-000.08,26.9,00.4,0660.1,34.7
2016-09-29T00:37:00Z,0000380,01000600,0000.75,0000.56,-000.12,0000.29,0000.16,0000.11,0000.19,-000.23,0000.24,26.9,00.6,0660.1,34.7
2016-09-29T00:38:00Z,0000380,01000600,0001.16,0000.14,-000.31,-000.50,0000.19,-000.11,0000.25,0000.27,0000.21,26.9,00.5,0660.1,34.7
2016-09-29T00:39:00Z,0000380,01000600,0001.28,0000.30,-000.08,0000.13,0000.42,-000.13,0000.05,-000.07,-000.30,26.9,00.4,0660.1,34.7
2016-09-29T00:40:00Z,0000380,01000600,0000.12,-000.04,0000.15,0000.61,0000.32,-000.10,-000.12,0000.21,-000.04,26.8,00.6,0660.1,34.7
2016-09-29T00:41:00Z,0000380,01000600,-000.39,0000.00,-000.08,-000.87,0000.18,0000.40,0000.05,0000.12,0000.34,26.8,00.5,0660.1,34.7
2016-09-29T00:42:00Z,0000380,01000600,0000.66,0000.36,0000.64,-000.43,0000.27,-000.21,0000.07,0000.08,0000.00,26.8,00.5,0660.1,34.7
2016-09-29T00:43:00Z,0000380,01000600,0000.78,-000.16,0000.40,0000.46,0000.13,-000.05,0000.10,0000.05,0000.16,26.8,00.6,0660.1,34.7
2016-09-29T00:44:00Z,0000380,01000600,0000.95,0000.89,-000.16,0000.14,0000.21,0000.27,0000.20,0000.03,0000.03,26.8,00.5,0660.1,34.7
2016-09-29T00:45:00Z,0000380,01000600,0001.86,0000.57,0000.23,-000.14,0000.42,-000.05,0000.01,-000.09,-000.29,26.8,00.5,0660.1,34.7
2016-09-29T00:46:00Z,0000380,01000600,0000.61,0000.50,-000.14,-000.58,0000.27,0000.24,-000.13,0000.15,0000.39,26.8,00.5,0660.1,34.7
2016-09-29T00:47:00Z,0000380,01000600,0000.58,0000.49,0000.38,0000.46,-000.05,0000.26,0000.12,0000.15,0000.04,26.8,00.5,0660.1,34.7
2016-09-29T00:48:00Z,0000380,01000600,0000.08,0000.60,0000.21,0000.46,0000.24,0000.06,0000.05,-000.17,-000.07,26.8,00.5,0660.1,34.7
2016-09-29T00:49:00Z,0000380,01000600,0001.64,0000.03,0000.50,0000.38,0000.40,-000.19,0000.04,0000.13,0000.01,26.8,00.5,0660.1,34.7
2016-09-29T00:50:00Z,0000380,01000600,0000.51,0000.29,0000.95,-000.35,-000.05,0000.53,0000.07,0000.22,0000.10,26.8,00.5,0660.1,34.7
2016-09-29T00:51:00Z,0000380,01000600,0000.44,-000.51,0000.33,0000.22,0000.08,0000.21,-000.07,-000.23,-000.02,26.8,00.5,0660.1,34.7
2016-09-29T00:52:00Z,0000380,01000600,0000.49,0000.69,0000.62,-000.40,0000.83,0000.27,0000.33,0000.31,0000.17,26.8,00.6,0660.1,34.7
2016-09-29T00:53:00Z,0000380,01000600,-000.04,0000.67,0000.07,-000.24,0000.27,-000.08,-000.25,0000.09,-000.17,26.8,00.6,0660.0,34.7
2016-09-29T00:54:00Z,0000380,01000600,0000.78,0000.78,0000.42,0000.16,0000.43,0000.00,0000.18,-000.11,0000.23,26.8,00.5,0660.0,34.7
2016-09-29T00:55:00Z,0000380,01000600,0000.91,0000.13,-000.44,-000.34,0000.24,-000.21,0000.05,0000.06,-000.02,26.8,00.5,0660.0,34.7
2016-09-29T00:56:00Z,0000380,01000600,0000.92,0000.50,0000.37,0000.08,-000.02,0000.16,0000.04,-000.07,0000.01,26.8,00.6,0660.0,34.7
2016-09-29T00:57:00Z,0000380,41000600,,,,,,,,,,,,0659.9,34.7
2016-09-29T00:58:00Z,0000380,61000600,,,,,,,,,,26.8,00.4,0659.0,34.7
2016-09-29T00:59:00Z,0000380,21000600,,,,,,,,,,26.8,00.4,0659.0,34.7
2016-09-29T01:00:00Z,0000380,21000600,,,,,,,,,,26.8,00.4,0659.0,34.7
2016-09-29T01:01:00Z,0000380,21000600,,,,,,,,,,26.8,00.4,0659.0,34.7
2016-09-29T01:02:00Z,0000380,21000600,,,,,,,,,,26.8,00.4,0659.0,34.7
2016-09-29T01:03:00Z,0000380,61000600,,,,,,,,,,26.8,00.4,0659.0,34.7
2016-09-29T01:04:00Z,0000380,41000600,-000.43,0000.29,0000.18,0000.53,-000.11,-000.24,0000.11,-000.05,-000.20,26.8,00.4,0659.9,34.7
2016-09-29T01:05:00Z,0000380,01000600,0000.11,0000.36,-000.08,0000.71,-000.22,-000.11,0000.22,-000.12,0000.19,26.8,00.4,0660.0,34.7
2016-09-29T01:06:00Z,0000380,01000600,0000.47,-000.05,0000.02,0000.22,0000.32,-000.02,0000.20,0000.16,0000.01,26.8,00.5,0660.0,34.7
2016-09-29T01:07:00Z,0000380,01000600,0000.00,0000.26,0000.48,0000.59,0000.54,0000.18,-000.20,0000.20,0000.11,26.8,00.5,0660.0,34.7
2016-09-29T01:08:00Z,0000380,01000600,-000.53,0000.53,0000.66,0000.69,-000.22,-000.26,0000.13,-000.02,0000.11,26.8,00.4,0659.9,34.7
2016-09-29T01:09:00Z,0000380,01000600,0001.31,0000.39,-000.04,0000.16,-000.10,0000.05,0000.23,0000.12,-000.29,26.8,00.5,0659.9,34.7
2016-09-29T01:10:00Z,0000380,01000600,0000.96,0000.30,0000.47,-000.42,0000.00,0000.40,-000.02,0000.02,0000.28,26.8,00.5,0659.9,34.7
2016-09-29T01:11:00Z,0000380,01000600,0000.20,0000.47,0000.55,0000.45,0000.13,-000.16,-000.08,-000.08,-000.04,26.8,00.6,0659.9,34.7
2016-09-29T01:12:00Z,0000380,01000600,0000.75,0000.72,-000.19,0000.40,0000.03,-000.32,-000.10,0000.19,-000.12,26.8,00.5,0659.9,34.7
2016-09-29T01:13:00Z,0000380,01000600,0000.44,0000.45,0000.15,0000.77,-000.16,-000.19,0000.05,-000.05,0000.24,26.8,00.5,0659.9,34.7
2016-09-29T01:14:00Z,0000380,01000600,-000.02,0000.68,0000.27,-000.13,0000.11,0000.06,0000.32,-000.05,-000.33,26.8,00.5,0659.9,34.7
2016-09-29T01:15:00Z,0000380,01000600,-001.10,0000.94,0000.39,0000.55,0000.16,-000.06,-000.11,0000.16,0000.33,26.8,00.4,0659.9,34.7
2016-09-29T01:16:00Z,0000380,01000600,0000.06,0000.36,0000.91,0000.37,0000.35,0000.13,-000.19,-000.04,0000.03,26.8,00.4,0659.9,34.7
2016-09-29T01:17:00Z,0000380,01000600,0000.45,0000.37,0000.57,0000.21,0000.06,0000.03,0000.33,0000.14,-000.17,26.8,00.5,0659.9,34.7
2016-09-29T01:18:00Z,0000380,01000600,0000.24,0000.23,0000.33,0000.14,-000.19,-000.16,-000.07,-000.02,-000.14,26.8,00.4,0659.9,34.7
2016-09-29T01:19:00Z,0000380,01000600,-000.68,0000.69,0000.04,-000.18,0000.27,-000.02,-000.09,0000.06,0000.24,26.8,00.5,0659.9,34.7
2016-09-29T01:20:00Z,0000380,01000600,0001.10,0001.02,0000.54,0000.64,-000.34,0000.21,0000.09,-000.09,-000.18,26.8,00.4,0659.9,34.7
2016-09-29T01:21:00Z,0000380,01000600,0000.84,0000.43,0000.12,0000.53,0000.02,-000.10,-000.08,0000.07,0000.23,26.7,00.4,0659.9,34.7
2016-09-29T01:22:00Z,0000380,01000600,-000.30,0000.93,0000.20,0000.48,0000.26,0000.34,0000.33,0000.11,-000.12,26.8,00.4,0659.8,34.7
2016-09-29T01:23:00Z,0000380,01000600,0000.47,0000.58,0000.35,0000.80,0000.14,-000.27,0000.03,0000.12,0000.26,26.7,00.4,0659.8,34.7
2016-09-29T01:24:00Z,0000380,01000600,0000.25,0000.37,0000.50,0000.26,0000.24,0000.14,-000.03,-000.07,-000.26,26.8,00.4,0659.8,34.7
2016-09-29T01:25:00Z,0000380,01000600,0000.73,0000.30,-000.02,0000.56,-000.14,-000.05,-000.20,-000.06,-000.08,26.8,00.4,0659.8,34.7
2016-09-29T01:26:00Z,0000380,01000600,0001.21,0000.05,0000.29,0000.83,0000.26,0000.08,0000.32,0000.07,0000.25,26.7,00.3,0659.8,34.7
2016-09-29T01:27:00Z,0000380,01000600,0001.10,0000.25,0000.59,0000.11,-000.18,0000.13,0000.08,-000.13,0000.13,26.7,00.3,0659.8,34.7
2016-09-29T01:28:00Z,0000380,01000600,-000.46,0000.10,0000.64,0000.66,-000.02,0000.13,0000.31,0000.10,0000.17,26.7,00.3,0659.8,34.7
2016-09-29T01:29:00Z,0000380,01000600,0001.14,0001.28,-000.23,0000.98,-000.42,-000.06,-000.10,0000.29,0000.01,26.8,00.4,0659.8,34.7
2016-09-29T01:30:00Z,0000380,01000600,0000.27,0000.32,0000.08,0000.98,0000.14,-000.19,0000.09,0000.02,-000.30,26.7,00.4,0659.8,34.7
2016-09-29T01:31:00Z,0000380,01000600,0000.08,0000.74,0000.88,0000.14,0000.16,0000.00,-000.00,0000.01,0000.36,26.7,00.4,0659.8,34.7
2016-09-29T01:32:00Z,0000380,01000600,0001.15,0000.21,0000.99,0000.55,-000.37,-000.06,-000.10,-000.01,-000.15,26.8,00.4,0659.8,34.7
2016-09-29T01:33:00Z,0000380,01000600,0000.14,0000.41,0000.56,0000.14,-000.18,-000.11,0000.07,0000.13,0000.04,26.7,00.4,0659.8,34.7
2016-09-29T01:34:00Z,0000380,01000600,-000.37,0001.24,-000.07,0000.50,-000.05,-000.43,0000.23,-000.02,-000.35,26.7,00.4,0659.8,34.7
2016-09-29T01:35:00Z,0000380,01000600,-000.52,0000.73,0000.48,0000.03,-000.03,-000.21,-000.12,0000.12,0000.24,26.7,00.3,0659.7,34.7
2016-09-29T01:36:00Z,0000380,01000600,0000.63,0000.83,0000.41,0000.08,0000.57,-000.08,0000.08,0000.00,0000.33,26.7,00.3,0659.7,34.7
2016-09-29T01:37:00Z,0000380,01000600,-000.32,0000.07,0000.58,0000.63,0000.11,0000.24,0000.13,-000.20,-000.14,26.7,00.3,0659.7,34.7
2016-09-29T01:38:00Z,0000380,01000600,-000.32,0000.47,0000.63,0000.11,-000.02,0000.32,-000.03,0000.28,0000.13,26.7,00.3,0659.7,34.7
2016-09-29T01:39:00Z,0000380,01000600,0000.31,0000.02,0000.49,0000.72,0000.35,0000.11,0000.13,-000.11,-000.01,26.7,00.3,0659.7,34.7
2016-09-29T01:40:00Z,0000380,01000600,0000.46,-000.17,0000.70,0000.83,0000.26,0000.30,0000.05,0000.04,-000.24,26.7,00.2,0659.7,34.7
2016-09-29T01:41:00Z,0000380,01000600,-000.12,0000.51,0000.99,0000.50,0000.11,-000.05,-000.23,-000.14,0000.06,26.7,00.3,0659.7,34.7
2016-09-29T01:42:00Z,0000380,01000600,0000.59,0000.69,-000.04,-000.10,0000.10,-000.35,0000.06,0000.16,0000.23,26.7,00.2,0659.7,34.7
2016-09-29T01:43:00Z,0000380,01000600,0000.02,0000.75,0000.77,0000.11,0000.22,0000.16,0000.15,0000.02,-000.07,26.7,00.2,0659.7,34.7
2016-09-29T01:44:00Z,0000380,01000600,-000.86,0000.49,0000.80,0000.53,0000.51,-000.37,-000.01,0000.11,0000.12,26.7,00.3,0659.7,34.7
2016-09-29T01:45:00Z,0000380,01000600,0000.63,-000.17,0000.81,0000.91,-000.05,-000.21,0000.26,-000.02,-000.12,26.7,00.3,0659.7,34.7
2016-09-29T01:46:00Z,0000380,01000600,0000.25,-000.11,0000.84,0000.75,-000.05,-000.14,-000.27,-000.02,0000.11,26.7,00.3,0659.7,34.7
2016-09-29T01:47:00Z,0000380,01000600,-000.91,0000.81,0000.24,-000.06,0000.49,-000.05,0000.19,0000.01,-000.27,26.7,00.3,0659.7,34.7
2016-09-29T01:48:00Z,0000380,01000600,0001.18,-000.15,0000.75,-000.80,0000.14,-000.11,0000.16,0000.16,0000.08,26.7,00.2,0659.7,34.7
2016-09-29T01:49:00Z,0000380,01000600,0000.90,0001.02,-000.17,0000.50,0000.40,-000.42,-000.08,0000.16,0000.17,26.7,00.2,0659.7,34.7
2016-09-29T01:50:00Z,0000380,01000600,0000.04,-000.14,0000.73,0000.26,-000.21,-000.03,0000.14,-000.07,-000.04,26.7,00.1,0659.7,34.7
2016-09-29T01:51:00Z,0000380,01000600,-000.29,0000.26,0000.87,0000.51,0000.02,-000.10,-000.00,0000.09,0000.04,26.7,00.2,0659.7,34.7
2016-09-29T01:52:00Z,0000380,01000600,0000.88,-000.12,0001.05,0000.13,0000.02,-000.61,0000.12,0000.07,0000.29,26.7,00.2,0659.7,34.7
2016-09-29T01:53:00Z,0000380,01000600,-001.12,-000.10,0000.37,0001.19,-000.30,-000.11,0000.06,-000.13,-000.02,26.6,00.2,0659.7,34.7
2016-09-29T01:54:00Z,0000380,01000600,0000.40,0000.69,0000.96,0000.27,-000.27,-000.05,0000.05,0000.14,-000.18,26.7,00.2,0659.7,34.7
2016-09-29T01:55:00Z,0000380,01000600,0000.45,0000.32,0000.59,-000.18,-000.08,0000.00,-000.02,0000.04,-000.08,26.7,00.1,0659.7,34.7
2016-09-29T01:56:00Z,0000380,01000600,0000.47,0000.35,0000.71,0001.17,-000.16,-000.26,-000.10,0000.02,-000.33,26.7,00.1,0659.7,34.7
2016-09-29T01:57:00Z,0000380,41000600,,,,,,,,,,,,0659.6,34.7
2016-09-29T01:58:00Z,0000380,61000600,,,,,,,,,,26.5,00.1,0658.7,34.7
2016-09-29T01:59:00Z,0000380,21000600,,,,,,,,,,26.5,00.1,0658.6,34.7
2016-09-29T02:00:00Z,0000380,21000600,,,,,,,,,,26.5,00.1,0658.6,34.7
2016-09-29T02:01:00Z,0000380,21000600,,,,,,,,,,26.5,00.1,0658.6,34.7
2016-09-29T02:02:00Z,0000380,21000600,,,,,,,,,,26.5,00.1,0658.6,34.7
2016-09-29T02:03:00Z,0000380,61000600,,,,,,,,,,26.6,00.1,0658.6,34.7
2016-09-29T02:04:00Z,0000380,41000600,0001.01,-000.55,0000.08,0000.56,0000.35,0000.10,-000.16,0000.23,-000.02,26.7,00.1,0659.6,34.7
2016-09-29T02:05:00Z,0000380,01000600,0000.57,0000.18,-000.16,-000.38,-000.10,0000.19,0000.08,-000.05,-000.03,26.6,00.1,0659.7,34.7
2016-09-29T02:06:00Z,0000380,01000600,-000.08,0000.28,0000.16,0000.40,-000.10,0000.22,0000.29,-000.08,-000.11,26.6,00.1,0659.7,34.7
2016-09-29T02:07:00Z,0000380,01000600,-000.02,0000.57,0000.10,0000.35,-000.10,-000.05,-000.20,0000.18,0000.28,26.6,00.1,0659.7,34.7
2016-09-29T02:08:00Z,0000380,01000600,0000.12,0000.10,0000.11,0000.59,0000.14,0000.29,-000.00,-000.20,0000.11,26.6,00.1,0659.7,34.7
2016-09-29T02:09:00Z,0000380,01000600,0000.41,0000.87,0000.40,-000.06,0000.51,0000.08,0000.26,0000.18,0000.15,26.6,00.1,0659.7,34.7
2016-09-29T02:10:00Z,0000380,01000600,0000.02,0000.47,0000.26,0000.56,-000.08,0000.35,0000.07,-000.12,-000.33,26.6,00.1,0659.7,34.7
2016-09-29T02:11:00Z,0000380,01000600,0000.90,0000.35,-000.20,0000.77,-000.13,0000.16,-000.12,0000.23,0000.04,26.6,00.1,0659.7,34.7
2016-09-29T02:12:00Z,0000380,01000600,0000.80,0000.34,-000.44,0000.53,0000.26,-000.21,0000.13,-000.04,0000.26,26.6,00.1,0659.7,34.7
2016-09-29T02:13:00Z,0000380,01000600,0000.82,0000.44,0000.49,0000.00,0000.02,0000.21,-000.16,0000.19,-000.12,26.6,00.1,0659.7,34.7
2016-09-29T02:14:00Z,0000380,01000600,0001.02,0000.54,0000.46,0000.38,0000.13,-000.26,0000.21,-000.05,0000.17,26.6,00.1,0659.7,34.7
2016-09-29T02:15:00Z,0000380,01000600,0000.55,0000.44,0000.30,0000.27,0000.10,0000.22,-000.03,0000.04,-000.08,26.6,00.1,0659.7,34.7
2016-09-29T02:16:00Z,0000380,01000600,0001.12,0000.81,-000.20,0001.22,0000.06,0000.30,0000.18,0000.24,-000.05,26.6,00.1,0659.7,34.7
2016-09-29T02:17:00Z,0000380,01000600,-000.55,0000.87,0000.38,0000.56,0000.02,0000.37,-000.09,0000.05,0000.21,26.6,00.1,0659.7,34.7
2016-09-29T02:18:00Z,0000380,01000600,0001.73,0000.05,-000.09,0000.43,-000.13,0000.16,0000.01,-000.17,0000.09,26.7,00.1,0659.7,34.7
2016-09-29T02:19:00Z,0000380,01000600,0000.84,0000.28,0000.21,0000.40,0000.21,0000.37,0000.20,0000.14,-000.01,26.7,00.1,0659.7,34.7
2016-09-29T02:20:00Z,0000380,01000600,0001.08,-000.60,0000.61,0000.58,-000.11,0000.34,-000.07,-000.11,0000.22,26.6,00.1,0659.8,34.7
2016-09-29T02:21:00Z,0000380,01000600,0000.41,0000.02,0000.25,0000.05,0000.45,0000.02,0000.18,0000.00,-000.39,26.6,00.1,0659.8,34.7
2016-09-29T02:22:00Z,0000380,01000600,-000.24,0000.10,-000.18,0000.64,-000.16,0000.06,-000.06,0000.09,0000.18,26.6,00.1,0659.8,34.7
2016-09-29T02:23:00Z,0000380,01000600,0000.62,-000.10,0000.24,0000.29,0000.14,0000.21,0000.11,-000.01,0000.20,26.6,00.1,0659.8,34.7
2016-09-29T02:24:00Z,0000380,01000600,0000.76,0000.24,0000.10,-000.02,0000.02,0000.22,-000.02,0000.12,-000.17,26.6,00.1,0659.8,34.7
2016-09-29T02:25:00Z,0000380,01000600,0000.27,0000.12,0000.15,0000.46,-000.08,-000.19,-000.15,-000.12,0000.13,26.6,00.1,0659.8,34.7
2016-09-29T02:26:00Z,0000380,01000600,0000.91,0000.15,0000.40,0000.45,0000.02,0000.08,0000.24,0000.08,0000.04,26.5,00.1,0659.8,34.7
2016-09-29T02:27:00Z,0000380,01000600,0000.11,0000.38,-000.25,0000.56,-000.18,0000.37,0000.09,0000.06,-000.11,26.5,00.1,0659.8,34.7
2016-09-29T02:28:00Z,0000380,01000600,0000.74,0000.31,0000.20,-000.14,0000.06,-000.19,0000.06,0000.17,0000.10,26.5,00.1,0659.8,34.7
2016-09-29T02:29:00Z,0000380,01000600,0000.55,-000.10,0000.15,0000.00,0000.75,0000.02,-000.00,-000.00,0000.20,26.5,00.1,0659.7,34.7
2016-09-29T02:30:00Z,0000380,01000600,0000.75,0000.84,-000.03,0000.96,0000.37,0000.02,-000.02,-000.01,0000.02,26.5,00.1,0659.7,34.7
2016-09-29T02:31:00Z,0000380,01000600,0000.57,0000.59,-000.08,0000.74,0000.26,0000.30,-000.16,0000.03,-000.18,26.5,00.1,0659.7,34.7
2016-09-29T02:32:00Z,0000380,01000600,0000.57,0000.30,0000.22,0000.18,0000.22,0000.45,0000.16,0000.09,0000.29,26.6,00.1,0659.7,34.7
2016-09-29T02:33:00Z,0000380,01000600,0000.43,0000.12,0000.30,0000.62,0000.21,-000.27,0000.16,0000.03,-000.15,26.5,00.1,0659.7,34.7
2016-09-29T02:34:00Z,0000380,01000600,0000.50,-000.17,0000.00,0000.64,-000.13,0000.56,-000.04,0000.03,0000.06,26.5,00.1,0659.7,34.7
2016-09-29T02:35:00Z,0000380,01000600,0000.43,0000.13,0000.05,0000.35,0000.65,0000.11,-000.03,0000.10,0000.02,26.5,00.1,0659.7,34.7
2016-09-29T02:36:00Z,0000380,01000600,0000.00,0000.49,-000.10,0000.45,0000.24,-000.06,0000.05,-000.10,0000.24,26.5,00.1,0659.7,34.7
2016-09-29T02:37:00Z,0000380,01000600,0000.65,0000.24,-000.01,0000.35,0000.30,0000.08,0000.36,0000.05,-000.18,26.5,00.1,0659.7,34.7
2016-09-29T02:38:00Z,0000380,01000600,0000.35,-000.28,0000.49,0000.98,-000.13,0000.22,-000.11,0000.05,0000.41,26.5,00.1,0659.7,34.7
2016-09-29T02:39:00Z,0000380,01000600,0001.00,0000.68,-000.02,0000.54,-000.22,-000.02,0000.04,0000.12,0000.01,26.6,00.1,0659.7,34.7
2016-09-29T02:40:00Z,0000380,01000600,0000.20,0000.02,0000.14,0000.42,-000.13,0000.39,-000.11,0000.15,0000.08,26.6,00.1,0659.7,34.7
2016-09-29T02:41:00Z,0000380,01000600,0000.72,0000.12,0000.12,0000.14,0000.54,0000.10,0000.31,0000.10,-000.27,26.6,00.2,0659.7,34.7
2016-09-29T02:42:00Z,0000380,01000600,0000.16,0000.08,-000.03,0000.40,-000.02,0000.05,-000.16,-000.12,0000.20,26.7,00.2,0659.7,34.7
2016-09-29T02:43:00Z,0000380,01000600,0001.29,0000.51,-000.05,0000.79,0000.14,0000.06,0000.05,0000.13,-000.07,26.7,00.1,0659.7,34.7
2016-09-29T02:44:00Z,0000380,01000600,0000.98,0000.38,-000.16,0000.43,0000.46,-000.16,0000.16,-000.02,-000.00,26.7,00.2,0659.7,34.7
2016-09-29T02:45:00Z,0000380,01000600,-000.14,0000.31,-000.23,0000.08,0000.14,-000.06,-000.09,-000.18,-000.12,26.6,00.2,0659.7,34.7
2016-09-29T02:46:00Z,0000380,01000600,-000.13,0000.36,-000.06,0000.38,0000.21,0000.03,0000.26,0000.30,0000.14,26.6,00.2,0659.7,34.7
2016-09-29T02:47:00Z,0000380,01000600,0000.19,0000.15,0000.09,0000.69,0000.38,0000.03,-000.01,-000.04,0000.28,26.7,00.1,0659.7,34.7
2016-09-29T02:48:00Z,0000380,01000600,0000.06,0000.20,-000.10,0000.93,0000.35,-000.14,-000.03,0000.06,-000.18,26.6,00.2,0659.7,34.7
2016-09-29T02:49:00Z,0000380,01000600,0000.31,0000.17,0000.06,0001.22,0000.16,0000.14,0000.02,-000.01,-000.01,26.6,00.1,0659.7,34.7
2016-09-29T02:50:00Z,0000380,01000600,0000.82,0000.41,0000.04,0000.75,0000.61,-000.08,0000.04,0000.16,0000.09,26.6,00.2,0659.7,34.7
2016-09-29T02:51:00Z,0000380,01000600,0000.47,0000.34,-000.04,0000.29,0000.16,0000.43,-000.03,-000.08,0000.11,26.6,00.2,0659.7,34.7
2016-09-29T02:52:00Z,0000380,01000600,0000.41,0000.00,0000.05,0000.63,0000.02,0000.21,0000.14,0000.18,0000.39,26.7,00.2,0659.7,34.7
2016-09-29T02:53:00Z,0000380,01000600,0000.55,0000.77,0000.24,-000.02,0000.22,0000.47,-000.02,-000.07,-000.37,26.6,00.2,0659.7,34.7
2016-09-29T02:54:00Z,0000380,01000600,0000.17,-000.02,0000.49,0000.30,0000.56,0000.29,0000.02,0000.20,-000.02,26.7,00.2,0659.7,34.7
2016-09-29T02:55:00Z,0000380,01000600,0000.44,0000.13,0000.13,0000.32,0000.10,0000.13,0000.32,0000.09,0000.31,26.7,00.2,0659.7,34.7
2016-09-29T02:56:00Z,0000380,01000600,0000.36,0000.16,0000.22,0000.34,0000.16,0000.37,-000.22,0000.07,-000.11,26.7,00.2,0659.7,34.7
2016-09-29T02:57:00Z,0000380,41000600,,,,,,,,,,,,0659.7,34.7
2016-09-29T02:58:00Z,0000380,61000600,,,,,,,,,,26.7,00.1,0658.7,34.7
2016-09-29T02:59:00Z,0000380,21000600,,,,,,,,,,26.7,00.1,0658.7,34.7
2016-09-29T03:00:00Z,0000380,21000600,,,,,,,,,,26.7,00.1,0658.7,34.7
2016-09-29T03:01:00Z,0000380,21000600,,,,,,,,,,26.7,00.1,0658.7,34.7
2016-09-29T03:02:00Z,0000380,21000600,,,,,,,,,,26.7,00.1,0658.7,34.7
2016-09-29T03:03:00Z,0000380,61000600,,,,,,,,,,26.7,00.1,0658.7,34.7
2016-09-29T03:04:00Z,0000380,41000600,0000.20,0000.95,0000.62,0000.21,0000.42,0000.32,0000.08,0000.12,-000.37,26.8,00.2,0659.6,34.7
2016-09-29T03:05:00Z,0000380,01000600,0000.15,0000.43,0000.37,-000.53,0000.35,-000.11,0000.08,-000.04,0000.17,26.8,00.2,0659.7,34.7
2016-09-29T03:06:00Z,0000380,01000600,0000.31,0000.02,0000.06,0000.47,0000.48,-000.06,0000.07,0000.00,0000.39,26.8,00.2,0659.7,34.7
2016-09-29T03:07:00Z,0000380,01000600,0000.16,0000.40,-000.17,0000.08,0000.24,0000.21,0000.34,0000.10,-000.10,26.8,00.2,0659.7,34.7
2016-09-29T03:08:00Z,0000380,01000600,0000.50,-000.43,-000.05,0000.16,0000.27,-000.08,-000.03,0000.15,0000.32,26.8,00.2,0659.7,34.7
2016-09-29T03:09:00Z,0000380,01000600,0000.89,-000.02,-000.09,0000.45,0000.19,0000.13,0000.02,0000.15,-000.06,26.8,00.2,0659.7,34.7
2016-09-29T03:10:00Z,0000380,01000600,0000.18,-000.07,0000.62,0000.35,0000.00,-000.03,-000.03,0000.05,0000.07,26.8,00.3,0659.7,34.7
2016-09-29T03:11:00Z,0000380,01000600,0000.15,0000.78,0000.39,-000.32,-000.10,0000.18,-000.14,-000.04,-000.08,26.8,00.2,0659.7,34.7
2016-09-29T03:12:00Z,0000380,01000600,0000.77,0000.13,0000.51,0000.37,-000.13,0000.29,0000.18,0000.09,-000.10,26.8,00.2,0659.7,34.7